When you browse on this site, cookies collect data to enhance your experience and personalize the content and advertising you see.
Visit our Privacy Policy to learn more. By continuing to use the site, you agree to this use of cookies and data.
  • In United Kingdom
  • List of Countries
  • For 7 days
  • Water Temperature
  • Satellite Maps
  • Weather Map
  • Weather Widgets
  • user-avatar
    Login

    Hourly Weather Reading

    Today, 19 January, Saturday

    Time Temperature Precipitation Wind Pressure Humidity
    00:00 +1°C° 0 mm 5 mps 754 mmHg 77%
    01:00 +1°C° 0.1 mm 5 mps 754 mmHg 78%
    02:00 +2°C° 0.1 mm 5 mps 753 mmHg 79%
    03:00 +2°C° 0.1 mm 5 mps 753 mmHg 81%
    04:00 +2°C° 0.2 mm 5 mps 753 mmHg 83%
    05:00 +2°C° 0.2 mm 5 mps 752 mmHg 85%
    06:00 +2°C° 0.2 mm 5 mps 752 mmHg 86%
    07:00 +2°C° 0 mm 5 mps 752 mmHg 88%
    08:00 +2°C° 0 mm 5 mps 752 mmHg 90%
    09:00 +2°C° 0 mm 5 mps 752 mmHg 92%
    10:00 +3°C° 0 mm 5 mps 752 mmHg 91%
    11:00 +3°C° 0 mm 5 mps 752 mmHg 90%
    12:00 +5°C° 0 mm 5 mps 752 mmHg 89%
    13:00 +5°C° 0.1 mm 5 mps 752 mmHg 89%
    14:00 +5°C° 0.1 mm 5 mps 751 mmHg 89%
    15:00 +5°C° 0.1 mm 5 mps 751 mmHg 88%
    16:00 +5°C° 0 mm 4 mps 751 mmHg 90%
    17:00 +4°C° 0 mm 4 mps 751 mmHg 91%
    18:00 +4°C° 0 mm 4 mps 751 mmHg 92%
    19:00 +4°C° 0 mm 4 mps 752 mmHg 92%
    20:00 +4°C° 0 mm 4 mps 752 mmHg 92%
    21:00 +4°C° 0 mm 4 mps 752 mmHg 92%
    22:00 +4°C° 0 mm 3 mps 752 mmHg 92%
    23:00 +3°C° 0 mm 3 mps 753 mmHg 92%

    Tomorrow, 20 January, Sunday

    Time Temperature Precipitation Wind Pressure Humidity
    00:00 +3°C° 0 mm 3 mps 753 mmHg 92%
    01:00 +3°C° 0 mm 3 mps 753 mmHg 92%
    02:00 +4°C° 0 mm 2 mps 754 mmHg 92%
    03:00 +3°C° 0 mm 2 mps 754 mmHg 92%
    04:00 +3°C° 0 mm 2 mps 755 mmHg 92%
    05:00 +2°C° 0 mm 2 mps 755 mmHg 93%
    06:00 +1°C° 0 mm 2 mps 755 mmHg 94%
    07:00 +1°C° 0 mm 2 mps 756 mmHg 93%
    08:00 +1°C° 0 mm 2 mps 757 mmHg 93%
    09:00 +1°C° 0 mm 2 mps 758 mmHg 92%
    10:00 +2°C° 0 mm 2 mps 758 mmHg 89%
    11:00 +4°C° 0 mm 2 mps 759 mmHg 85%
    12:00 +5°C° 0 mm 2 mps 759 mmHg 82%
    13:00 +4°C° 0 mm 3 mps 760 mmHg 82%
    14:00 +4°C° 0 mm 3 mps 760 mmHg 82%
    15:00 +4°C° 0 mm 3 mps 760 mmHg 82%
    16:00 +3°C° 0 mm 3 mps 761 mmHg 85%
    17:00 +3°C° 0 mm 3 mps 762 mmHg 87%
    18:00 +2°C° 0 mm 3 mps 762 mmHg 90%
    19:00 +2°C° 0 mm 2 mps 763 mmHg 91%
    20:00 +2°C° 0 mm 2 mps 763 mmHg 92%
    21:00 +1°C° 0 mm 2 mps 764 mmHg 93%
    22:00 +1°C° 0 mm 2 mps 764 mmHg 93%
    23:00 -1°C° 0 mm 2 mps 764 mmHg 93%

    Day after tomorrow, 21 January, Monday

    Time Temperature Precipitation Wind Pressure Humidity
    00:00 +1°C° 0 mm 1 mps 765 mmHg 94%
    01:00 +1°C° 0 mm 1 mps 765 mmHg 94%
    02:00 +1°C° 0 mm 1 mps 765 mmHg 94%
    03:00 +1°C° 0 mm 1 mps 765 mmHg 95%
    04:00 +1°C° 0 mm 1 mps 765 mmHg 95%
    05:00 +1°C° 0 mm 1 mps 765 mmHg 95%
    06:00 +1°C° 0 mm 1 mps 765 mmHg 96%
    07:00 +1°C° 0 mm 1 mps 765 mmHg 95%
    08:00 +2°C° 0 mm 1 mps 765 mmHg 94%
    09:00 +2°C° 0 mm 1 mps 765 mmHg 94%
    10:00 +3°C° 0 mm 1 mps 765 mmHg 89%
    11:00 +4°C° 0 mm 2 mps 764 mmHg 84%
    12:00 +5°C° 0 mm 2 mps 764 mmHg 79%
    13:00 +4°C° 0 mm 3 mps 763 mmHg 80%
    14:00 +4°C° 0 mm 3 mps 762 mmHg 81%
    15:00 +4°C° 0 mm 4 mps 761 mmHg 81%
    16:00 +4°C° 0 mm 4 mps 760 mmHg 83%
    17:00 +4°C° 0 mm 4 mps 760 mmHg 85%
    18:00 +2°C° 0 mm 5 mps 759 mmHg 87%
    19:00 +2°C° 0 mm 5 mps 757 mmHg 85%
    20:00 +3°C° 0 mm 6 mps 756 mmHg 84%
    21:00 +3°C° 0 mm 6 mps 755 mmHg 82%
    22:00 +3°C° 0.9 mm 7 mps 754 mmHg 84%
    23:00 +4°C° 0.9 mm 8 mps 753 mmHg 87%

    22 January, Tuesday

    Time Temperature Precipitation Wind Pressure Humidity
    00:00 +3°C° 0.9 mm 9 mps 751 mmHg 89%
    01:00 +1°C° 0.4 mm 8 mps 751 mmHg 86%
    02:00 +1°C° 0.4 mm 6 mps 751 mmHg 82%
    03:00 -1°C° 0.4 mm 5 mps 750 mmHg 79%
    04:00 -1°C° 0 mm 5 mps 750 mmHg 79%
    05:00 -1°C° 0 mm 5 mps 750 mmHg 80%
    06:00 -1°C° 0 mm 5 mps 750 mmHg 80%
    07:00 -1°C° 0 mm 5 mps 749 mmHg 80%
    08:00 -1°C° 0 mm 5 mps 749 mmHg 80%
    09:00 -1°C° 0 mm 5 mps 749 mmHg 80%
    10:00 0°C° 0.1 mm 5 mps 748 mmHg 75%
    11:00 +1°C° 0.1 mm 5 mps 748 mmHg 71%
    12:00 +2°C° 0.1 mm 6 mps 748 mmHg 66%
    13:00 +1°C° 0.2 mm 5 mps 747 mmHg 68%
    14:00 +1°C° 0.2 mm 5 mps 747 mmHg 70%
    15:00 +1°C° 0.2 mm 4 mps 746 mmHg 71%
    16:00 0°C° 0.1 mm 4 mps 746 mmHg 75%
    17:00 -1°C° 0.1 mm 4 mps 746 mmHg 78%
    18:00 -2°C° 0.1 mm 4 mps 746 mmHg 82%
    19:00 -2°C° 0 mm 4 mps 746 mmHg 82%
    20:00 -3°C° 0 mm 4 mps 746 mmHg 83%
    21:00 -3°C° 0 mm 4 mps 746 mmHg 83%
    22:00 -3°C° 0 mm 4 mps 746 mmHg 84%
    23:00 -3°C° 0 mm 4 mps 745 mmHg 84%

    23 January, Wednesday

    Time Temperature Precipitation Wind Pressure Humidity
    00:00 -3°C° 0 mm 4 mps 745 mmHg 85%
    01:00 -3°C° 0 mm 4 mps 745 mmHg 85%
    02:00 -3°C° 0 mm 4 mps 745 mmHg 85%
    03:00 -3°C° 0 mm 4 mps 745 mmHg 85%
    04:00 -3°C° 0 mm 4 mps 745 mmHg 85%
    05:00 -3°C° 0 mm 4 mps 745 mmHg 85%
    06:00 -3°C° 0 mm 4 mps 745 mmHg 86%
    07:00 -2°C° 0 mm 3 mps 745 mmHg 86%
    08:00 -1°C° 0 mm 3 mps 745 mmHg 85%
    09:00 -1°C° 0 mm 3 mps 745 mmHg 85%
    10:00 0°C° 0 mm 3 mps 745 mmHg 80%
    11:00 0°C° 0 mm 4 mps 745 mmHg 75%
    12:00 +1°C° 0 mm 4 mps 745 mmHg 69%
    13:00 +1°C° 0 mm 4 mps 746 mmHg 67%
    14:00 +1°C° 0 mm 4 mps 746 mmHg 65%
    15:00 +1°C° 0 mm 4 mps 746 mmHg 63%
    16:00 -1°C° 0 mm 4 mps 746 mmHg 68%
    17:00 -2°C° 0 mm 4 mps 747 mmHg 73%
    18:00 -3°C° 0 mm 4 mps 747 mmHg 78%
    19:00 -2°C° 0 mm 3 mps 748 mmHg 78%
    20:00 -2°C° 0 mm 3 mps 748 mmHg 78%
    21:00 -2°C° 0 mm 3 mps 748 mmHg 78%
    22:00 -2°C° 0 mm 3 mps 748 mmHg 78%
    23:00 -2°C° 0 mm 3 mps 748 mmHg 78%

    24 January, Thursday

    Time Temperature Precipitation Wind Pressure Humidity
    00:00 -2°C° 0 mm 3 mps 748 mmHg 78%
    01:00 -2°C° 0 mm 4 mps 748 mmHg 79%
    02:00 -2°C° 0 mm 4 mps 749 mmHg 80%
    03:00 -2°C° 0 mm 4 mps 749 mmHg 81%
    04:00 -2°C° 0 mm 4 mps 750 mmHg 83%
    05:00 -2°C° 0 mm 5 mps 750 mmHg 84%
    06:00 -2°C° 0 mm 5 mps 751 mmHg 86%
    07:00 -2°C° 0 mm 5 mps 752 mmHg 86%
    08:00 -2°C° 0 mm 5 mps 753 mmHg 86%
    09:00 -1°C° 0 mm 5 mps 753 mmHg 86%
    10:00 0°C° 0 mm 5 mps 754 mmHg 81%
    11:00 +1°C° 0 mm 6 mps 754 mmHg 76%
    12:00 +3°C° 0 mm 6 mps 754 mmHg 71%
    13:00 +3°C° 0 mm 6 mps 755 mmHg 71%
    14:00 +3°C° 0 mm 7 mps 755 mmHg 71%
    15:00 +3°C° 0 mm 7 mps 755 mmHg 72%
    16:00 +2°C° 0 mm 6 mps 756 mmHg 74%
    17:00 +1°C° 0 mm 6 mps 756 mmHg 77%
    18:00 -2°C° 0 mm 6 mps 757 mmHg 80%
    19:00 -2°C° 0 mm 6 mps 757 mmHg 79%
    20:00 -2°C° 0 mm 6 mps 757 mmHg 78%
    21:00 -3°C° 0 mm 6 mps 758 mmHg 77%
    22:00 -3°C° 0 mm 6 mps 758 mmHg 77%
    23:00 -3°C° 0 mm 6 mps 758 mmHg 77%
    Show more